TimeCST,TemperatureF,Dew PointF,Humidity,Sea Level PressureIn,VisibilityMPH,Wind Direction,Wind SpeedMPH,Gust SpeedMPH,PrecipitationIn,Events,Conditions,WindDirDegrees,DateUTC
12:15 AM,19.4,17.6,93,29.78,7.0,Calm,Calm,-,N/A,,Clear,0,2013-01-19 06:15:00
12:35 AM,21.2,19.4,93,29.77,7.0,Calm,Calm,-,N/A,,Clear,0,2013-01-19 06:35:00
1:15 AM,21.2,21.2,100,29.78,7.0,Calm,Calm,-,N/A,,Scattered Clouds,0,2013-01-19 07:15:00
1:35 AM,23.0,21.2,93,29.78,7.0,Calm,Calm,-,N/A,,Scattered Clouds,0,2013-01-19 07:35:00
1:55 AM,23.0,21.2,93,29.78,7.0,Calm,Calm,-,N/A,,Mostly Cloudy,0,2013-01-19 07:55:00
2:15 AM,23.0,21.2,93,29.78,7.0,Calm,Calm,-,N/A,,Scattered Clouds,0,2013-01-19 08:15:00
2:35 AM,21.2,21.2,100,29.78,7.0,Calm,Calm,-,N/A,,Clear,0,2013-01-19 08:35:00
2:55 AM,21.2,21.2,100,29.77,7.0,NE,3.5,-,N/A,,Clear,40,2013-01-19 08:55:00
3:15 AM,23.0,23.0,100,29.76,7.0,ENE,3.5,-,N/A,,Scattered Clouds,60,2013-01-19 09:15:00
3:35 AM,23.0,21.2,93,29.75,7.0,East,4.6,-,N/A,,Mostly Cloudy,100,2013-01-19 09:35:00
3:55 AM,23.0,21.2,93,29.73,7.0,East,3.5,-,N/A,,Overcast,90,2013-01-19 09:55:00
4:15 AM,24.8,23.0,93,29.72,7.0,East,3.5,-,N/A,,Overcast,100,2013-01-19 10:15:00
4:35 AM,24.8,23.0,93,29.72,7.0,ESE,3.5,-,N/A,,Overcast,110,2013-01-19 10:35:00
5:15 AM,26.6,24.8,93,29.71,7.0,South,8.1,-,N/A,,Overcast,170,2013-01-19 11:15:00
5:35 AM,26.6,24.8,93,29.71,7.0,Calm,Calm,-,N/A,,Mostly Cloudy,0,2013-01-19 11:35:00
5:55 AM,26.6,24.8,93,29.71,7.0,Calm,Calm,-,N/A,,Scattered Clouds,0,2013-01-19 11:55:00
7:15 AM,26.6,26.6,100,29.69,7.0,South,4.6,-,N/A,,Clear,170,2013-01-19 13:15:00
7:35 AM,26.6,26.6,100,29.67,5.0,SSE,4.6,-,N/A,,Clear,160,2013-01-19 13:35:00
7:55 AM,28.4,26.6,93,29.65,5.0,SSE,5.8,-,N/A,,Scattered Clouds,160,2013-01-19 13:55:00
9:55 AM,30.2,28.4,93,29.66,5.0,Calm,Calm,-,N/A,,Scattered Clouds,0,2013-01-19 15:55:00
10:15 AM,32.0,30.2,93,29.66,7.0,SSW,4.6,-,N/A,,Scattered Clouds,200,2013-01-19 16:15:00
10:35 AM,32.0,30.2,93,29.65,10.0,South,8.1,-,N/A,,Mostly Cloudy,190,2013-01-19 16:35:00
11:15 AM,33.8,30.2,87,29.63,10.0,SW,9.2,-,N/A,,Mostly Cloudy,230,2013-01-19 17:15:00
11:35 AM,33.8,30.2,87,29.63,10.0,WSW,6.9,-,N/A,,Overcast,250,2013-01-19 17:35:00
11:55 AM,35.6,30.2,81,29.62,10.0,WSW,10.4,-,N/A,,Mostly Cloudy,250,2013-01-19 17:55:00
12:15 PM,33.8,30.2,87,29.60,10.0,WSW,5.8,-,N/A,,Overcast,240,2013-01-19 18:15:00
12:55 PM,35.6,30.2,81,29.60,10.0,West,15.0,21.9,N/A,,Overcast,270,2013-01-19 18:55:00
1:15 PM,35.6,30.2,81,29.60,10.0,West,13.8,20.7,N/A,,Overcast,270,2013-01-19 19:15:00
1:55 PM,33.8,28.4,81,29.59,10.0,West,16.1,-,N/A,,Overcast,280,2013-01-19 19:55:00
2:15 PM,33.8,28.4,81,29.61,10.0,West,19.6,27.6,N/A,,Overcast,270,2013-01-19 20:15:00
2:35 PM,33.8,28.4,81,29.61,10.0,West,16.1,21.9,N/A,,Overcast,260,2013-01-19 20:35:00
2:55 PM,33.8,28.4,81,29.60,10.0,West,15.0,23.0,N/A,,Overcast,260,2013-01-19 20:55:00
3:15 PM,33.8,28.4,81,29.60,10.0,West,13.8,21.9,N/A,,Mostly Cloudy,260,2013-01-19 21:15:00
3:35 PM,33.8,28.4,81,29.59,7.0,WSW,9.2,17.3,N/A,Snow,Light Snow,240,2013-01-19 21:35:00
3:55 PM,33.8,28.4,81,29.58,10.0,WSW,19.6,27.6,N/A,,Overcast,240,2013-01-19 21:55:00
4:15 PM,33.8,26.6,75,29.58,10.0,WSW,16.1,27.6,N/A,,Mostly Cloudy,250,2013-01-19 22:15:00
4:35 PM,32.0,21.2,64,29.59,10.0,West,21.9,34.5,N/A,,Mostly Cloudy,260,2013-01-19 22:35:00
4:55 PM,32.0,19.4,60,29.61,10.0,West,26.5,33.4,N/A,,Mostly Cloudy,280,2013-01-19 22:55:00
5:15 PM,30.2,17.6,60,29.63,10.0,West,26.5,35.7,N/A,,Mostly Cloudy,270,2013-01-19 23:15:00
5:55 PM,19.4,12.2,74,29.71,1.8,WNW,33.4,43.7,N/A,Snow,Light Snow,300,2013-01-19 23:55:00
6:15 PM,19.4,8.6,63,29.73,10.0,WNW,34.5,44.9,N/A,,Overcast,290,2013-01-20 00:15:00
6:35 PM,15.8,3.2,58,29.77,10.0,WNW,34.5,44.9,N/A,,Overcast,300,2013-01-20 00:35:00
6:55 PM,14.0,3.2,62,29.79,10.0,NW,20.7,38.0,N/A,,Scattered Clouds,310,2013-01-20 00:55:00
7:15 PM,12.2,3.2,67,29.82,10.0,WNW,19.6,35.7,N/A,,Mostly Cloudy,290,2013-01-20 01:15:00
7:35 PM,12.2,3.2,67,29.84,7.0,WNW,23.0,33.4,N/A,,Overcast,290,2013-01-20 01:35:00
7:55 PM,10.4,-0.4,62,29.86,10.0,West,23.0,33.4,N/A,,Overcast,280,2013-01-20 01:55:00
8:15 PM,10.4,-0.4,62,29.87,10.0,WNW,26.5,32.2,N/A,,Overcast,290,2013-01-20 02:15:00
8:35 PM,8.6,-2.2,62,29.89,10.0,WNW,25.3,34.5,N/A,,Overcast,290,2013-01-20 02:35:00
8:55 PM,8.6,-0.4,67,29.90,10.0,WNW,18.4,35.7,N/A,,Overcast,290,2013-01-20 02:55:00
9:15 PM,6.8,-2.2,67,29.92,10.0,WNW,23.0,34.5,N/A,,Overcast,290,2013-01-20 03:15:00
9:35 PM,6.8,-2.2,67,29.93,10.0,WNW,23.0,34.5,N/A,,Overcast,290,2013-01-20 03:35:00
9:55 PM,6.8,-2.2,67,29.95,7.0,WNW,21.9,26.5,N/A,,Overcast,290,2013-01-20 03:55:00
10:15 PM,5.0,-2.2,72,29.97,10.0,WNW,17.3,26.5,N/A,,Overcast,300,2013-01-20 04:15:00
10:35 PM,5.0,-4.0,66,29.98,10.0,NW,20.7,27.6,N/A,,Mostly Cloudy,310,2013-01-20 04:35:00
10:55 PM,5.0,-4.0,66,30.00,10.0,NW,23.0,32.2,N/A,,Overcast,310,2013-01-20 04:55:00
11:15 PM,5.0,-4.0,66,30.01,10.0,NW,23.0,32.2,N/A,,Mostly Cloudy,310,2013-01-20 05:15:00
11:35 PM,5.0,-4.0,66,30.02,10.0,NW,20.7,29.9,N/A,,Scattered Clouds,310,2013-01-20 05:35:00
11:55 PM,3.2,-4.0,72,30.03,10.0,NW,21.9,29.9,N/A,,Clear,310,2013-01-20 05:55:00